When you browse on this site, cookies collect data to enhance your experience and personalize the content and advertising you see.
Visit our Privacy Policy to learn more. By continuing to use the site, you agree to this use of cookies and data.
  • In Österreich
  • Länderverzeichnis
  • Für 7 Tage
  • Wassertemperatur
  • Wetterkarte
  • News
  • Widgets
  • user-avatar
    Anmelden

    Stündliche Wetter Bijeljina

    Heute, 21 Februar, Freitag

    Zeit Temperatur Niederschläge Wind Luftdruck Luftfeuchtigkeit
    00:00 +5°C° 0 mm 1 m/S 760 mmHg 73%
    01:00 +4°C° 0 mm 1 m/S 760 mmHg 73%
    02:00 +4°C° 0 mm 1 m/S 760 mmHg 73%
    03:00 +4°C° 0 mm 1 m/S 759 mmHg 74%
    04:00 +4°C° 0 mm 1 m/S 759 mmHg 74%
    05:00 +2°C° 0 mm 2 m/S 759 mmHg 74%
    06:00 +2°C° 0 mm 2 m/S 759 mmHg 75%
    07:00 +2°C° 0 mm 2 m/S 759 mmHg 75%
    14:00 +10°C° 0 mm 4 m/S 760 mmHg 45%
    15:00 +10°C° 0 mm 4 m/S 760 mmHg 47%
    16:00 +9°C° 0 mm 3 m/S 761 mmHg 48%
    17:00 +8°C° 0 mm 3 m/S 761 mmHg 51%
    18:00 +7°C° 0 mm 3 m/S 762 mmHg 53%
    19:00 +5°C° 0 mm 3 m/S 762 mmHg 56%
    20:00 +4°C° 0 mm 3 m/S 762 mmHg 58%
    21:00 +4°C° 0 mm 3 m/S 763 mmHg 60%
    22:00 +3°C° 0 mm 3 m/S 763 mmHg 62%
    23:00 +3°C° 0 mm 3 m/S 763 mmHg 64%

    Morgen, 22 Februar, Samstag

    Zeit Temperatur Niederschläge Wind Luftdruck Luftfeuchtigkeit
    00:00 +2°C° 0 mm 3 m/S 763 mmHg 67%
    01:00 +2°C° 0 mm 3 m/S 763 mmHg 70%
    02:00 +2°C° 0 mm 3 m/S 764 mmHg 72%
    03:00 +2°C° 0 mm 2 m/S 764 mmHg 74%
    04:00 +2°C° 0 mm 2 m/S 764 mmHg 77%
    05:00 +2°C° 0 mm 2 m/S 764 mmHg 78%
    06:00 +1°C° 0 mm 2 m/S 764 mmHg 79%
    07:00 +1°C° 0 mm 2 m/S 765 mmHg 80%
    08:00 +3°C° 0 mm 2 m/S 765 mmHg 73%
    09:00 +5°C° 0 mm 2 m/S 765 mmHg 67%
    10:00 +6°C° 0 mm 2 m/S 765 mmHg 60%
    11:00 +7°C° 0 mm 2 m/S 765 mmHg 55%
    12:00 +8°C° 0 mm 2 m/S 765 mmHg 50%
    13:00 +9°C° 0 mm 2 m/S 765 mmHg 45%
    14:00 +9°C° 0 mm 2 m/S 764 mmHg 45%
    15:00 +9°C° 0 mm 2 m/S 764 mmHg 44%
    16:00 +11°C° 0 mm 1 m/S 763 mmHg 43%
    17:00 +9°C° 0 mm 1 m/S 763 mmHg 47%
    18:00 +8°C° 0 mm 1 m/S 763 mmHg 51%
    19:00 +7°C° 0 mm 1 m/S 764 mmHg 55%
    20:00 +7°C° 0 mm 1 m/S 763 mmHg 56%
    21:00 +6°C° 0 mm 2 m/S 763 mmHg 57%
    22:00 +6°C° 0 mm 2 m/S 763 mmHg 58%
    23:00 +5°C° 0 mm 2 m/S 763 mmHg 57%

    übermorgen, 23 Februar, Sonntag

    Zeit Temperatur Niederschläge Wind Luftdruck Luftfeuchtigkeit
    00:00 +5°C° 0 mm 2 m/S 763 mmHg 57%
    01:00 +5°C° 0 mm 2 m/S 762 mmHg 57%
    02:00 +5°C° 0 mm 2 m/S 762 mmHg 56%
    03:00 +5°C° 0 mm 2 m/S 762 mmHg 55%
    04:00 +5°C° 0 mm 2 m/S 761 mmHg 54%
    05:00 +6°C° 0 mm 1 m/S 761 mmHg 56%
    06:00 +5°C° 0 mm 1 m/S 762 mmHg 58%
    07:00 +4°C° 0 mm 0 m/S 762 mmHg 59%
    08:00 +7°C° 0 mm 1 m/S 762 mmHg 54%
    09:00 +9°C° 0 mm 1 m/S 761 mmHg 49%
    10:00 +11°C° 0 mm 1 m/S 761 mmHg 44%
    11:00 +12°C° 0 mm 1 m/S 761 mmHg 42%
    12:00 +14°C° 0 mm 1 m/S 760 mmHg 41%
    13:00 +15°C° 0 mm 2 m/S 760 mmHg 40%
    14:00 +15°C° 0 mm 2 m/S 759 mmHg 43%
    15:00 +15°C° 0 mm 1 m/S 758 mmHg 45%
    16:00 +16°C° 0 mm 1 m/S 757 mmHg 48%
    17:00 +14°C° 0 mm 1 m/S 757 mmHg 50%
    18:00 +13°C° 0 mm 1 m/S 757 mmHg 53%
    19:00 +12°C° 0 mm 1 m/S 757 mmHg 55%
    20:00 +11°C° 0 mm 1 m/S 757 mmHg 56%
    21:00 +10°C° 0 mm 2 m/S 756 mmHg 56%
    22:00 +10°C° 0 mm 2 m/S 756 mmHg 56%
    23:00 +9°C° 0 mm 2 m/S 756 mmHg 57%

    24 Februar, Montag

    Zeit Temperatur Niederschläge Wind Luftdruck Luftfeuchtigkeit
    00:00 +9°C° 0 mm 2 m/S 755 mmHg 59%
    01:00 +9°C° 0 mm 2 m/S 755 mmHg 60%
    02:00 +9°C° 0 mm 2 m/S 755 mmHg 62%
    03:00 +9°C° 0 mm 2 m/S 754 mmHg 63%
    04:00 +9°C° 0 mm 3 m/S 754 mmHg 65%
    05:00 +9°C° 0 mm 3 m/S 755 mmHg 67%
    06:00 +9°C° 0 mm 3 m/S 756 mmHg 68%
    07:00 +9°C° 0 mm 3 m/S 757 mmHg 69%
    08:00 +8°C° 0.1 mm 3 m/S 758 mmHg 69%
    09:00 +8°C° 0.1 mm 3 m/S 759 mmHg 69%
    10:00 +7°C° 0.1 mm 3 m/S 761 mmHg 69%
    11:00 +8°C° 0.1 mm 3 m/S 761 mmHg 65%
    12:00 +7°C° 0.1 mm 4 m/S 761 mmHg 60%
    13:00 +8°C° 0.1 mm 4 m/S 761 mmHg 55%
    14:00 +8°C° 0 mm 4 m/S 761 mmHg 52%
    15:00 +8°C° 0 mm 4 m/S 761 mmHg 48%
    16:00 +10°C° 0 mm 3 m/S 761 mmHg 45%
    17:00 +8°C° 0 mm 3 m/S 761 mmHg 50%
    18:00 +7°C° 0 mm 2 m/S 761 mmHg 56%
    19:00 +7°C° 0 mm 1 m/S 761 mmHg 62%
    20:00 +7°C° 0 mm 1 m/S 761 mmHg 63%
    21:00 +6°C° 0 mm 1 m/S 761 mmHg 65%
    22:00 +6°C° 0 mm 1 m/S 761 mmHg 66%
    23:00 +6°C° 0 mm 1 m/S 761 mmHg 66%

    25 Februar, Dienstag

    Zeit Temperatur Niederschläge Wind Luftdruck Luftfeuchtigkeit
    00:00 +5°C° 0 mm 1 m/S 760 mmHg 65%
    01:00 +4°C° 0 mm 2 m/S 760 mmHg 65%
    02:00 +4°C° 0 mm 2 m/S 759 mmHg 64%
    03:00 +3°C° 0 mm 2 m/S 759 mmHg 64%
    04:00 +3°C° 0 mm 2 m/S 758 mmHg 63%
    05:00 +3°C° 0 mm 2 m/S 758 mmHg 63%
    06:00 +3°C° 0 mm 2 m/S 757 mmHg 63%
    07:00 +3°C° 0 mm 2 m/S 757 mmHg 63%
    08:00 +6°C° 0 mm 2 m/S 756 mmHg 58%
    09:00 +8°C° 0 mm 2 m/S 755 mmHg 52%
    10:00 +11°C° 0 mm 1 m/S 755 mmHg 46%
    11:00 +12°C° 0 mm 1 m/S 754 mmHg 43%
    12:00 +13°C° 0 mm 1 m/S 753 mmHg 41%
    13:00 +15°C° 0 mm 1 m/S 753 mmHg 39%
    14:00 +14°C° 0 mm 1 m/S 752 mmHg 42%
    15:00 +13°C° 0 mm 0 m/S 751 mmHg 44%
    16:00 +13°C° 0 mm 0 m/S 751 mmHg 47%
    17:00 +12°C° 0 mm 0 m/S 751 mmHg 50%
    18:00 +12°C° 0 mm 1 m/S 751 mmHg 53%
    19:00 +11°C° 0 mm 1 m/S 751 mmHg 56%
    20:00 +11°C° 0 mm 1 m/S 750 mmHg 58%
    21:00 +11°C° 0 mm 1 m/S 750 mmHg 60%
    22:00 +10°C° 0 mm 2 m/S 750 mmHg 61%
    23:00 +10°C° 0 mm 2 m/S 750 mmHg 62%

    26 Februar, Mittwoch

    Zeit Temperatur Niederschläge Wind Luftdruck Luftfeuchtigkeit
    00:00 +10°C° 0 mm 3 m/S 749 mmHg 62%
    01:00 +10°C° 0 mm 3 m/S 749 mmHg 62%
    02:00 +10°C° 0 mm 2 m/S 748 mmHg 65%
    03:00 +9°C° 0 mm 2 m/S 748 mmHg 67%
    04:00 +10°C° 0 mm 1 m/S 747 mmHg 69%
    05:00 +10°C° 0 mm 1 m/S 747 mmHg 70%
    06:00 +10°C° 0 mm 1 m/S 747 mmHg 71%
    07:00 +10°C° 0 mm 1 m/S 747 mmHg 73%
    08:00 +11°C° 0.1 mm 1 m/S 747 mmHg 72%
    09:00 +12°C° 0.1 mm 2 m/S 747 mmHg 71%
    10:00 +13°C° 0.1 mm 2 m/S 747 mmHg 70%
    11:00 +12°C° 0.2 mm 2 m/S 747 mmHg 73%
    12:00 +11°C° 0.2 mm 3 m/S 747 mmHg 75%
    13:00 +10°C° 0.2 mm 3 m/S 747 mmHg 78%
    14:00 +9°C° 0.3 mm 3 m/S 747 mmHg 80%
    15:00 +8°C° 0.3 mm 4 m/S 747 mmHg 81%
    16:00 +7°C° 0.3 mm 4 m/S 746 mmHg 83%
    17:00 +7°C° 0.2 mm 3 m/S 747 mmHg 84%
    18:00 +7°C° 0.2 mm 3 m/S 747 mmHg 85%
    19:00 +7°C° 0.2 mm 3 m/S 748 mmHg 86%
    20:00 +5°C° 1.7 mm 4 m/S 748 mmHg 87%
    21:00 +3°C° 1.7 mm 5 m/S 748 mmHg 89%
    22:00 +3°C° 1.7 mm 6 m/S 749 mmHg 90%
    23:00 +2°C° 1.2 mm 5 m/S 749 mmHg 90%
    Mehr zeigen